Home   Weather   Vancouver   Past weeks

Flag for USA Past Weather in Vancouver, Washington, USA — Yesterday and Last 2 Weeks

53 °F


Feels Like: 53 °F
Forecast: 52 / 60 °F
Wind: No wind

Location: Vancouver - Pearson Airpark

Current Time: Oct 21, 2016 at 7:56:12 AM

Latest Report: Oct 21, 2016 at 6:53 AM

Visibility: 10 mi

Pressure: 30.02 "Hg

Humidity: 86%

Dew Point: 49 °F

Location of VancouverLocation

Past Weather in Vancouver — Graph


Vancouver Temperature Yesterday

Maximum temperature yesterday: 62 °F (at 9:53 AM)
Minimum temperature yesterday: 52 °F (at 7:53 PM)
Average temperature yesterday: 57 °F

High & Low Weather Summary for the Past Weeks

High69 °F (Oct 8, 1:53 PM)97% (Oct 10, 3:01 AM)30.33 "Hg (Oct 10, 3:01 AM)
Low40 °F (Oct 12, 5:53 AM)32% (Oct 11, 3:53 PM)29.24 "Hg (Oct 15, 1:53 PM)
Average55 °F81%29.90 "Hg
* Reported Oct 6 5:53 AM — Oct 21 5:53 AM, Vancouver, Weather by CustomWeather, © 2016

Note: Actual official high and low records may vary slightly from our data, if they occured in-between our weather recording intervals... More about our weather records


Vancouver Weather History for the Previous 24 Hours

Scroll right to see more
Time TempWeatherWind HumidityBarometerVisibility
5:53 AM
Fri, Oct 21
52 °FMostly cloudy.No wind89%30.03 "Hg10 mi
4:53 AM52 °FLow clouds.3 mph89%30.04 "Hg10 mi
3:53 AM52 °FFog.5 mph97%30.05 "Hg5 mi
2:53 AM53 °FLow clouds.No wind93%30.07 "Hg7 mi
1:53 AM53 °FLow clouds.No wind93%30.07 "Hg10 mi
12:53 AM54 °FLow clouds.No wind90%30.09 "Hg10 mi
11:53 PM
Thu, Oct 20
54 °FLow clouds.No wind90%30.10 "Hg10 mi
11:04 PM54 °FMostly cloudy.No wind90%30.11 "Hg10 mi
10:53 PM53 °FMostly cloudy.No wind96%30.11 "Hg10 mi
9:53 PM53 °FPartly cloudy.No wind96%30.11 "Hg10 mi
8:53 PM53 °FPassing clouds.No wind93%30.11 "Hg10 mi
7:53 PM52 °FPassing clouds.No wind97%30.12 "Hg10 mi
6:53 PM55 °FPassing clouds.No wind93%30.12 "Hg10 mi
5:53 PM60 °FPartly sunny.3 mph80%30.13 "Hg10 mi
4:53 PM62 °FPartly sunny.No wind78%30.12 "Hg10 mi
3:53 PM62 °FPartly sunny.No wind80%30.11 "Hg10 mi
2:53 PM61 °FCloudy.3 mph87%30.10 "Hg10 mi
1:53 PM61 °FLight rain. Fog.No wind90%30.09 "Hg4 mi
1:03 PM60 °FLight rain. Overcast.No wind93%30.09 "Hg10 mi
12:00 PM61 °FLight rain. Overcast.8 mph90%30.08 "Hg7 mi
10:53 AM62 °FMostly cloudy.5 mph80%30.05 "Hg10 mi
9:53 AM62 °FOvercast.6 mph78%30.06 "Hg10 mi
8:53 AM59 °FOvercast.8 mph84%30.06 "Hg10 mi
7:53 AM56 °FOvercast.8 mph90%30.06 "Hg10 mi
Weather by CustomWeather, © 2016

See weather overviewHow to use our weather pages